Home   Weather   Viersen   Past weeks

Flag for Germany Past Weather in Viersen, North Rhine-Westphalia, Germany — Yesterday and Last 2 Weeks

Now
63 °F

Passing clouds.


Feels Like: 63 °F
Forecast: 52 / 65 °F
Wind: 10 mph from West

Location: Monchengladbach Airport

Current Time: Sep 30, 2016 at 3:35:39 PM

Latest Report: Sep 30, 2016 at 2:50 PM


Visibility: N/A

Pressure: 29.98 "Hg

Humidity: 64%

Dew Point: 50 °F

Location of ViersenLocation

Past Weather in Viersen — Graph

°F

Viersen Temperature Yesterday

Maximum temperature yesterday: 72 °F (at 2:20 PM)
Minimum temperature yesterday: 59 °F (at 7:50 AM)
Average temperature yesterday: 68 °F

High & Low Weather Summary for the Past Weeks

 TemperatureHumidityPressure
High86 °F (Sep 15, 3:20 PM)100% (Sep 17, 7:50 AM)30.33 "Hg (Sep 17, 7:50 AM)
Low45 °F (Sep 27, 7:50 AM)32% (Sep 25, 2:50 PM)29.77 "Hg (Sep 15, 4:20 PM)
Average65 °F65%30.10 "Hg
* Reported Sep 15 1:20 PM — Sep 30 1:50 PM, Viersen, Weather by CustomWeather, © 2016

Note: Actual official high and low records may vary slightly from our data, if they occured in-between our weather recording intervals... More about our weather records

Advertising

Viersen Weather History for the Previous 24 Hours

Scroll right to see more
 ConditionsComfort  
Time TempWeatherWind HumidityBarometerVisibility
1:50 PM
Fri, Sep 30
63 °FPassing clouds.10 mph59%29.98 "HgN/A
1:20 PM63 °FPassing clouds.8 mph68%29.98 "HgN/A
12:50 PM63 °FPartly cloudy.8 mph68%29.98 "HgN/A
12:20 PM63 °FPartly cloudy.9 mph73%29.98 "HgN/A
11:50 AM61 °FPartly cloudy.6 mph77%29.95 "HgN/A
11:20 AM61 °FPassing clouds.7 mph77%29.95 "HgN/A
10:50 AM61 °FPassing clouds.6 mph83%29.95 "HgN/A
10:20 AM59 °FScattered clouds.7 mph88%29.95 "HgN/A
9:50 AM59 °FBroken clouds.5 mph88%29.95 "HgN/A
9:20 AM57 °FPartly sunny.5 mph88%29.95 "HgN/A
8:50 AM57 °FScattered clouds.6 mph88%29.95 "HgN/A
8:20 AM57 °FPassing clouds.5 mph88%29.95 "HgN/A
7:50 AM57 °FPartly sunny.3 mph88%29.92 "HgN/A
8:20 PM
Thu, Sep 29
68 °FPassing clouds.9 mph60%29.95 "HgN/A
7:50 PM68 °FPassing clouds.9 mph60%29.95 "HgN/A
7:20 PM68 °FPassing clouds.10 mph60%29.95 "HgN/A
6:50 PM68 °FPassing clouds.16 mph60%29.95 "HgN/A
6:20 PM70 °FPartly cloudy.10 mph57%29.92 "HgN/A
5:50 PM70 °FPassing clouds.17 mph57%29.95 "HgN/A
5:20 PM70 °FPassing clouds.14 mph57%29.95 "HgN/A
4:50 PM70 °FPassing clouds.10 mph57%29.95 "HgN/A
4:20 PM70 °FPassing clouds.9 mph57%29.95 "HgN/A
3:50 PM72 °FPassing clouds.16 mph53%29.95 "HgN/A
3:20 PM70 °FPassing clouds.18 mph57%29.98 "HgN/A
Weather by CustomWeather, © 2016

See weather overviewHow to use our weather pages